Date String (YYYY-MM-DD hh:mm:ss) UTC,Instrument flags,Ambient pressure (hPa),Sample flow (lpm),Bypass flow (lpm),Sample temperature (°C),Ambient temperature (°C),ASC tube jacket temperature (°C),LED temperature (°C),Box temperature (°C),Sample RH (%),Span deviation,Mass concentration (μg/m³),Mass concentration (μg/m³),Mass concentration (μg/m³)
DateTimeUTC,F1_M11,P_M11,Q1_M11,Q2_M11,T1_M11,T2_M11,T3_M11,T4_M11,T5_M11,U1_M11,ZSPAN_M11,X0_M11,X2_M11,X1_M11
2023-01-15 22:00:00,,0807.2,4.99,0.00,23.3,21.9,00.0,32.1,25.1,14.1,0000.0,0008.09,0004.42,0004.10
2023-01-15 22:01:00,,0807.2,5.00,0.00,23.3,21.9,00.0,32.1,25.1,14.1,0000.0,0008.16,0004.46,0004.12
2023-01-15 22:02:00,,0807.2,5.00,0.00,23.3,21.9,00.0,32.1,25.1,14.1,0000.0,0007.86,0004.48,0004.13
2023-01-15 22:03:00,,0807.2,4.99,0.00,23.3,21.8,00.0,32.1,25.0,14.0,0000.0,0007.81,0004.50,0004.14
2023-01-15 22:04:00,,0807.2,5.00,0.00,23.3,21.8,00.0,32.1,25.0,14.0,0000.0,0007.90,0004.52,0004.14
2023-01-15 22:05:00,,0807.2,4.99,0.00,23.2,21.8,00.0,32.1,25.0,14.1,0000.0,0008.08,0004.53,0004.15
2023-01-15 22:06:00,,0807.3,4.99,0.00,23.2,21.7,00.0,32.1,25.0,14.2,0000.0,0008.16,0004.53,0004.15
2023-01-15 22:07:00,,0807.3,5.00,0.00,23.2,21.8,00.0,32.1,25.0,14.3,0000.0,0008.08,0004.52,0004.16
2023-01-15 22:08:00,,0807.3,5.02,0.00,23.2,21.8,00.0,32.1,25.0,14.4,0000.0,0007.37,0004.53,0004.17
2023-01-15 22:09:00,,0807.3,5.01,0.00,23.3,21.8,00.0,32.1,25.1,14.4,0000.0,0007.16,0004.51,0004.17
2023-01-15 22:10:00,,0807.3,4.99,0.00,23.3,21.9,00.0,32.1,25.0,14.4,0000.0,0007.18,0004.51,0004.17
2023-01-15 22:11:00,,0807.3,4.99,0.00,23.3,21.9,00.0,32.1,25.1,14.3,0000.0,0007.31,0004.50,0004.16
2023-01-15 22:12:00,,0807.3,5.00,0.00,23.3,21.9,00.0,32.1,25.1,14.2,0000.0,0007.23,0004.47,0004.15
2023-01-15 22:13:00,,0807.3,5.02,0.00,23.3,21.9,00.0,32.1,25.0,14.1,0000.0,0007.26,0004.47,0004.15
2023-01-15 22:14:00,,0807.3,4.99,0.00,23.3,21.9,00.0,32.1,25.1,14.1,0000.0,0007.25,0004.44,0004.14
2023-01-15 22:15:00,,0807.3,5.00,0.00,23.3,21.9,00.0,32.1,25.1,14.0,0000.0,0007.63,0004.44,0004.14
2023-01-15 22:16:00,,0807.3,5.00,0.00,23.3,22.0,00.0,32.1,25.1,13.9,0000.0,0007.43,0004.42,0004.15
2023-01-15 22:17:00,,0807.3,5.00,0.00,23.3,22.0,00.0,32.1,25.1,14.1,0000.0,0007.46,0004.44,0004.15
2023-01-15 22:18:00,,0807.3,4.99,0.00,23.3,22.0,00.0,32.1,25.1,14.0,0000.0,0007.45,0004.44,0004.15
2023-01-15 22:19:00,,0807.4,5.00,0.00,23.3,22.1,00.0,32.1,25.1,13.6,0000.0,0007.55,0004.46,0004.15
2023-01-15 22:20:00,,0807.4,5.00,0.00,23.3,22.0,00.0,32.1,25.1,14.0,0000.0,0007.63,0004.47,0004.15
2023-01-15 22:21:00,,0807.4,4.98,0.00,23.3,22.1,00.0,32.1,25.1,13.9,0000.0,0007.70,0004.47,0004.15
2023-01-15 22:22:00,,0807.3,5.01,0.00,23.3,22.1,00.0,32.1,25.1,13.5,0000.0,0007.58,0004.43,0004.15
2023-01-15 22:23:00,,0807.3,4.99,0.00,23.3,22.1,00.0,32.1,25.2,13.6,0000.0,0007.55,0004.43,0004.15
2023-01-15 22:24:00,,0807.3,5.01,0.00,23.4,22.1,00.0,32.1,25.2,13.6,0000.0,0007.45,0004.40,0004.14
2023-01-15 22:25:00,,0807.3,5.00,0.00,23.4,22.1,00.0,32.2,25.2,13.5,0000.0,0007.33,0004.40,0004.14
2023-01-15 22:26:00,,0807.3,5.00,0.00,23.4,22.1,00.0,32.2,25.2,13.4,0000.0,0006.67,0004.40,0004.14
2023-01-15 22:27:00,,0807.3,5.00,0.00,23.4,22.1,00.0,32.2,25.2,13.3,0000.0,0006.85,0004.42,0004.14
2023-01-15 22:28:00,,0807.3,5.01,0.00,23.4,22.1,00.0,32.2,25.2,13.7,0000.0,0006.91,0004.42,0004.14
2023-01-15 22:29:00,,0807.3,5.00,0.00,23.4,22.1,00.0,32.2,25.2,13.7,0000.0,0006.84,0004.41,0004.15
2023-01-15 22:30:00,,0807.3,5.00,0.00,23.4,22.1,00.0,32.2,25.2,13.8,0000.0,0006.63,0004.37,0004.15
2023-01-15 22:31:00,,0807.3,5.00,0.00,23.4,22.1,00.0,32.2,25.2,13.8,0000.0,0006.49,0004.34,0004.14
2023-01-15 22:32:00,,0807.3,4.99,0.00,23.4,22.1,00.0,32.2,25.2,13.7,0000.0,0006.43,0004.35,0004.15
2023-01-15 22:33:00,,0807.3,4.99,0.00,23.4,22.2,00.0,32.2,25.2,13.6,0000.0,0006.41,0004.35,0004.16
2023-01-15 22:34:00,,0807.3,5.00,0.00,23.4,22.2,00.0,32.2,25.2,13.6,0000.0,0006.51,0004.38,0004.17
2023-01-15 22:35:00,,0807.3,4.99,0.00,23.4,22.2,00.0,32.2,25.2,13.6,0000.0,0006.58,0004.39,0004.18
2023-01-15 22:36:00,,0807.3,5.00,0.00,23.4,22.2,00.0,32.2,25.2,13.7,0000.0,0006.60,0004.39,0004.18
2023-01-15 22:37:00,,0807.3,5.00,0.00,23.4,22.2,00.0,32.2,25.2,13.8,0000.0,0006.81,0004.40,0004.19
2023-01-15 22:38:00,,0807.3,5.00,0.00,23.4,22.2,00.0,32.2,25.2,13.6,0000.0,0007.07,0004.42,0004.19
2023-01-15 22:39:00,,0807.3,5.00,0.00,23.4,22.2,00.0,32.2,25.3,13.6,0000.0,0007.11,0004.44,0004.18
2023-01-15 22:40:00,,0807.3,5.00,0.00,23.5,22.3,00.0,32.2,25.3,13.6,0000.0,0007.13,0004.45,0004.17
2023-01-15 22:41:00,,0807.3,5.00,0.00,23.5,22.3,00.0,32.2,25.3,13.6,0000.0,0007.20,0004.46,0004.16
2023-01-15 22:42:00,,0807.3,5.01,0.00,23.5,22.3,00.0,32.2,25.3,13.5,0000.0,0007.28,0004.46,0004.16
2023-01-15 22:43:00,,0807.3,5.00,0.00,23.5,22.3,00.0,32.2,25.3,13.3,0000.0,0007.09,0004.44,0004.14
2023-01-15 22:44:00,,0807.4,5.01,0.00,23.5,22.3,00.0,32.3,25.3,13.5,0000.0,0007.04,0004.44,0004.14
2023-01-15 22:45:00,,0807.4,4.99,0.00,23.5,22.3,00.0,32.3,25.3,13.6,0000.0,0007.02,0004.43,0004.12
2023-01-15 22:46:00,,0807.3,5.01,0.00,23.5,22.3,00.0,32.3,25.3,13.7,0000.0,0007.09,0004.44,0004.11
2023-01-15 22:47:00,,0807.3,4.99,0.00,23.5,22.3,00.0,32.3,25.4,13.5,0000.0,0007.09,0004.44,0004.10
2023-01-15 22:48:00,,0807.4,5.00,0.00,23.5,22.3,00.0,32.3,25.3,13.4,0000.0,0007.19,0004.44,0004.08
2023-01-15 22:49:00,,0807.4,5.00,0.00,23.5,22.3,00.0,32.3,25.4,13.4,0000.0,0006.85,0004.41,0004.06
2023-01-15 22:50:00,,0807.4,5.00,0.00,23.5,22.3,00.0,32.3,25.4,13.6,0000.0,0006.90,0004.39,0004.05
2023-01-15 22:51:00,,0807.4,4.99,0.00,23.5,22.3,00.0,32.3,25.4,13.8,0000.0,0006.76,0004.35,0004.05
2023-01-15 22:52:00,,0807.4,5.00,0.00,23.5,22.3,00.0,32.3,25.4,13.7,0000.0,0006.70,0004.34,0004.05
2023-01-15 22:53:00,,0807.4,5.00,0.00,23.5,22.3,00.0,32.3,25.4,13.6,0000.0,0006.61,0004.32,0004.04
2023-01-15 22:54:00,,0807.4,5.00,0.00,23.5,22.3,00.0,32.3,25.4,13.7,0000.0,0006.55,0004.31,0004.02
2023-01-15 22:55:00,,0807.4,5.01,0.00,23.6,22.3,00.0,32.3,25.4,13.6,0000.0,0006.53,0004.28,0004.01
2023-01-15 22:56:00,,0807.4,5.00,0.00,23.6,22.3,00.0,32.3,25.4,13.5,0000.0,0006.44,0004.26,0003.99
2023-01-15 22:57:00,,0807.4,5.00,0.00,23.6,22.3,00.0,32.3,25.4,13.6,0000.0,0006.33,0004.23,0003.98
2023-01-15 22:58:00,,0807.4,5.00,0.00,23.6,22.3,00.0,32.3,25.4,13.7,0000.0,0006.34,0004.22,0003.98
2023-01-15 22:59:00,,0807.4,4.99,0.00,23.6,22.3,00.0,32.3,25.4,13.7,0000.0,0006.07,0004.18,0003.96
